Roros Lufthavn, Norway

4:57 PM CET on December 06, 2019 (GMT +0100)
Roros

Weather History for ENRO - November, 2019

Change the Weather History Date:

Saturday, November 16, 2019

  Actual Average Record
Temperature  
Mean Temperature 22 °F -  
Max Temperature 30 °F 26 °F 50 °F (2013)
Min Temperature 14 °F 20 °F 5 °F (2010)
Degree Days  
Heating Degree Days 43    
Moisture  
Dew Point 22 °F    
Average Humidity 98    
Maximum Humidity 100    
Minimum Humidity 93    
Precipitation  
Precipitation 0.00 in - - ()
Sea Level Pressure  
Sea Level Pressure 29.92 in    
Wind  
Wind Speed 3 mph ()    
Max Wind Speed 12 mph    
Max Gust Speed -    
Visibility 5.0 miles    
Events Snow    
Averages and records for this station are not official NWS values.
T = Trace of Precipitation, MM = Missing Value Source: Averaged Metar Reports

Daily Weather History Graph

Daily Weather History Graph

Search for Another Location

Airport or City:

Astronomy

Nov. 16, 2019 Rise Set
Actual Time 8:32 AM CET 3:25 PM CET
Civil Twilight 7:36 AM CET 4:21 PM CET
Nautical Twilight 6:39 AM CET 5:18 PM CET
Astronomical Twilight 5:46 AM CET 6:11 PM CET
Moon 5:51 PM CET (11/16) 1:00 PM CET (11/16)
Length of Visible Light 8h 44m
Length of Day
6h 53m
Waning Gibbous, 84% of the Moon is Illuminated
Nov 16
Waning Gibbous
Nov 19
Last Quarter
Nov 26
New
Dec 4
First Quarter
Dec 12
Full

Hourly Weather History & Observations

Time (CET) Temp. Windchill Dew Point Humidity Pressure Visibility Wind Dir Wind Speed Gust Speed Precip Events Conditions
12:20 AM 15.8 °F - 14.0 °F 93% 30.09 in - Variable 1.2 mph - N/A   Overcast
12:50 AM 15.8 °F - 14.0 °F 93% 30.09 in 5.6 mi SW 1.2 mph - N/A   Overcast
1:20 AM 15.8 °F - 15.8 °F 100% 30.09 in 6.2 mi Variable 1.2 mph - N/A   Overcast
1:50 AM 15.8 °F - 15.8 °F 100% 30.09 in - Variable 1.2 mph - N/A   Overcast
2:20 AM 15.8 °F - 15.8 °F 100% 30.06 in 1.1 mi Variable 1.2 mph - N/A   Overcast
2:50 AM 15.8 °F - 15.8 °F 100% 30.06 in - SW 1.2 mph - N/A   Overcast
3:20 AM 15.8 °F - 15.8 °F 100% 30.06 in 6.2 mi SW 2.3 mph - N/A   Overcast
3:50 AM 15.8 °F - 15.8 °F 100% 30.04 in 6.2 mi SW 1.2 mph - N/A   Overcast
4:20 AM 15.8 °F - 15.8 °F 100% 30.04 in 6.2 mi Variable 1.2 mph - N/A   Overcast
5:20 AM 15.8 °F - 15.8 °F 100% 30.04 in 4.3 mi SW 2.3 mph - N/A   Overcast
5:50 AM 15.8 °F - 15.8 °F 100% 30.01 in 4.3 mi SSW 2.3 mph - N/A   Overcast
6:20 AM 15.8 °F - 14.0 °F 93% 30.01 in 6.2 mi Variable 1.2 mph - N/A   Overcast
6:50 AM 15.8 °F - 14.0 °F 93% 30.01 in 1.4 mi Variable 1.2 mph - N/A   Overcast
7:20 AM 15.8 °F - 15.8 °F 100% 29.98 in 6.2 mi SW 1.2 mph - N/A   Overcast
7:50 AM 15.8 °F - 14.0 °F 93% 29.98 in 6.2 mi SSW 2.3 mph - N/A   Overcast
8:20 AM 14.0 °F - 14.0 °F 100% 29.98 in 6.2 mi SSW 2.3 mph - N/A   Overcast
8:50 AM 15.8 °F - 15.8 °F 100% 29.98 in 6.2 mi Variable 2.3 mph - N/A   Overcast
9:20 AM 15.8 °F - 15.8 °F 100% 29.98 in 6.2 mi Variable 1.2 mph - N/A   Overcast
9:50 AM 17.6 °F - 15.8 °F 93% 29.95 in 6.2 mi South 2.3 mph - N/A   Overcast
10:20 AM 17.6 °F - 17.6 °F 100% 29.95 in 6.2 mi Variable 1.2 mph - N/A   Overcast
10:50 AM 19.4 °F - 19.4 °F 100% 29.95 in 6.2 mi Variable 2.3 mph - N/A   Overcast
11:20 AM 21.2 °F - 21.2 °F 100% 29.92 in 6.2 mi Variable 1.2 mph - N/A   Overcast
11:50 AM 28.4 °F 24.6 °F 28.4 °F 100% 29.92 in 6.2 mi ESE 3.5 mph - N/A   Overcast
12:20 PM 28.4 °F 21.2 °F 28.4 °F 100% 29.92 in 6.2 mi SSE 6.9 mph - N/A   Mostly Cloudy
12:50 PM 28.4 °F 21.2 °F 28.4 °F 100% 29.89 in 6.2 mi SSE 6.9 mph - N/A   Overcast
1:20 PM 28.4 °F 18.5 °F 28.4 °F 100% 29.89 in 6.2 mi SE 11.5 mph - N/A   Overcast
1:50 PM 30.2 °F 23.4 °F 30.2 °F 100% 29.89 in 6.2 mi SE 6.9 mph - N/A   Overcast
2:20 PM 30.2 °F 21.9 °F 30.2 °F 100% 29.86 in 6.2 mi South 9.2 mph - N/A   Mostly Cloudy
2:50 PM 30.2 °F 25.4 °F 30.2 °F 100% 29.86 in 6.2 mi SSE 4.6 mph - N/A   Overcast
3:20 PM 30.2 °F 21.9 °F 28.4 °F 93% 29.86 in 6.2 mi ESE 9.2 mph - N/A   Overcast
3:50 PM 30.2 °F 23.4 °F 28.4 °F 93% 29.86 in 6.2 mi East 6.9 mph - N/A   Overcast
4:20 PM 30.2 °F 22.6 °F 30.2 °F 100% 29.86 in 5.0 mi ESE 8.1 mph - N/A Snow Light Snow
4:50 PM 30.2 °F 25.4 °F 30.2 °F 100% 29.83 in 3.1 mi ENE 4.6 mph - N/A Snow Light Snow
5:20 PM 30.2 °F 21.9 °F 28.4 °F 93% 29.83 in 3.1 mi East 9.2 mph - N/A Snow Light Snow
5:50 PM 28.4 °F 20.4 °F 28.4 °F 100% 29.83 in 1.8 mi ESE 8.1 mph - N/A Snow Light Snow
6:20 PM 28.4 °F 21.2 °F 28.4 °F 100% 29.83 in - ESE 6.9 mph - N/A Snow Light Snow
6:50 PM 28.4 °F 22.2 °F 28.4 °F 100% 29.83 in 3.1 mi East 5.8 mph - N/A Snow Light Snow
7:20 PM 28.4 °F 18.5 °F 28.4 °F 100% 29.83 in 4.3 mi East 11.5 mph - N/A Snow Light Snow
7:50 PM 28.4 °F 21.2 °F 28.4 °F 100% 29.83 in 3.1 mi East 6.9 mph - N/A Snow Light Snow
8:50 PM 28.4 °F 21.2 °F 28.4 °F 100% 29.80 in 1.4 mi ENE 6.9 mph - N/A Snow Light Snow
9:20 PM 28.4 °F 20.4 °F 28.4 °F 100% 29.80 in 1.7 mi East 8.1 mph - N/A Snow Light Snow
9:50 PM 28.4 °F 18.5 °F 28.4 °F 100% 29.77 in 4.3 mi ESE 11.5 mph - N/A Snow Light Snow
10:20 PM 28.4 °F 18.5 °F 28.4 °F 100% 29.77 in 3.1 mi ESE 11.5 mph - N/A Snow Light Snow
10:50 PM 28.4 °F 21.2 °F 26.6 °F 93% 29.77 in 3.7 mi ESE 6.9 mph - N/A Snow Light Snow
11:20 PM 28.4 °F 23.3 °F 26.6 °F 93% 29.77 in 5.6 mi SE 4.6 mph - N/A Snow Light Snow
11:50 PM 28.4 °F 21.2 °F 26.6 °F 93% 29.74 in 6.2 mi East 6.9 mph - N/A Snow Light Snow